Orbital Elements at Epoch 2459200.5 (2020-Dec-17.0) TDB
Reference: JPL 10 (heliocentric ecliptic J2000)
Element | Value | Uncertainty (1-sigma) | Units |
e | .5250392427795112 | 8.1394e-05 | |
a | 2.014569268196255 | 0.00033156 | au |
q | .9568413450956195 | 6.4986e-06 | au |
i | 9.375111242030448 | 0.0010338 | deg |
node | 83.42640372163288 | 7.9605e-05 | deg |
peri | 214.7511892794389 | 0.00017147 | deg |
M | 54.14479226788109 | 0.01311 | deg |
tp | 2459043.418179877720 (2020-Jul-12.91817988) | 0.00074628 | TDB |
period | 1044.411713027593 2.86 | 0.25783 0.0007059 | d yr |
n | .3446916532144339 | 8.5093e-05 | deg/d |
Q | 3.072297191296891 | 0.00050564 | au |
|
| | Orbit Determination Parameters
Additional Information
|